When you browse on this site, cookies collect data to enhance your experience and personalize the content and advertising you see.
Visit our Privacy Policy to learn more. By continuing to use the site, you agree to this use of cookies and data.
  • In Czech Republic
  • List of Countries
  • For 7 days
  • Water Temperature
  • Weather Map
  • Weather Widgets
  • user-avatar
    Login

    Hourly Weather Laon

    Today, 29 May, Friday

    Time Temperature Precipitation Wind Pressure Humidity
    00:00 +12°C° 0 mm 4 mps 762 mmHg 73%
    01:00 +11°C° 0 mm 4 mps 762 mmHg 76%
    02:00 +10°C° 0 mm 3 mps 762 mmHg 79%
    03:00 +10°C° 0 mm 3 mps 762 mmHg 82%
    04:00 +10°C° 0 mm 3 mps 762 mmHg 80%
    05:00 +11°C° 0 mm 3 mps 762 mmHg 78%
    06:00 +12°C° 0 mm 4 mps 762 mmHg 75%
    07:00 +14°C° 0 mm 4 mps 761 mmHg 70%
    08:00 +17°C° 0 mm 4 mps 761 mmHg 64%
    09:00 +19°C° 0 mm 4 mps 761 mmHg 59%
    10:00 +19°C° 0 mm 4 mps 761 mmHg 57%
    11:00 +20°C° 0 mm 4 mps 761 mmHg 54%
    12:00 +21°C° 0 mm 3 mps 760 mmHg 53%
    13:00 +21°C° 0 mm 3 mps 760 mmHg 53%
    14:00 +22°C° 0 mm 3 mps 759 mmHg 53%
    15:00 +22°C° 0 mm 3 mps 759 mmHg 53%
    16:00 +21°C° 0 mm 3 mps 759 mmHg 59%
    17:00 +21°C° 0 mm 2 mps 758 mmHg 64%
    18:00 +20°C° 0 mm 2 mps 758 mmHg 70%
    19:00 +18°C° 0 mm 2 mps 758 mmHg 73%
    20:00 +16°C° 0 mm 2 mps 758 mmHg 75%
    21:00 +14°C° 0 mm 2 mps 758 mmHg 78%
    22:00 +13°C° 0 mm 2 mps 758 mmHg 78%
    23:00 +13°C° 0 mm 2 mps 758 mmHg 79%

    Tomorrow, 30 May, Saturday

    Time Temperature Precipitation Wind Pressure Humidity
    00:00 +12°C° 0 mm 2 mps 758 mmHg 79%
    01:00 +10°C° 0 mm 2 mps 758 mmHg 79%
    02:00 +10°C° 0 mm 2 mps 758 mmHg 80%
    03:00 +9°C° 0 mm 2 mps 758 mmHg 80%
    04:00 +10°C° 0 mm 2 mps 758 mmHg 79%
    05:00 +11°C° 0 mm 3 mps 758 mmHg 77%
    06:00 +12°C° 0 mm 3 mps 758 mmHg 76%
    07:00 +14°C° 0 mm 3 mps 758 mmHg 71%
    08:00 +17°C° 0 mm 3 mps 758 mmHg 67%
    09:00 +18°C° 0 mm 4 mps 758 mmHg 63%
    10:00 +19°C° 0 mm 4 mps 758 mmHg 59%
    11:00 +20°C° 0 mm 4 mps 758 mmHg 56%
    12:00 +21°C° 0 mm 4 mps 758 mmHg 53%
    13:00 +21°C° 0 mm 4 mps 758 mmHg 53%
    14:00 +21°C° 0 mm 4 mps 757 mmHg 54%
    15:00 +22°C° 0 mm 3 mps 757 mmHg 55%
    16:00 +21°C° 0 mm 3 mps 757 mmHg 60%
    17:00 +20°C° 0 mm 3 mps 757 mmHg 66%
    18:00 +20°C° 0 mm 3 mps 756 mmHg 71%
    19:00 +18°C° 0 mm 3 mps 757 mmHg 73%
    20:00 +16°C° 0 mm 3 mps 757 mmHg 75%
    21:00 +13°C° 0 mm 3 mps 757 mmHg 77%
    22:00 +12°C° 0 mm 3 mps 757 mmHg 76%
    23:00 +11°C° 0 mm 3 mps 757 mmHg 74%

    Day after tomorrow, 31 May, Sunday

    Time Temperature Precipitation Wind Pressure Humidity
    00:00 +11°C° 0 mm 3 mps 757 mmHg 73%
    01:00 +10°C° 0 mm 3 mps 757 mmHg 73%
    02:00 +9°C° 0 mm 3 mps 757 mmHg 73%
    03:00 +9°C° 0 mm 3 mps 757 mmHg 72%
    04:00 +10°C° 0 mm 3 mps 758 mmHg 72%
    05:00 +11°C° 0 mm 4 mps 758 mmHg 72%
    06:00 +12°C° 0 mm 4 mps 758 mmHg 73%
    07:00 +14°C° 0 mm 4 mps 758 mmHg 68%
    08:00 +15°C° 0 mm 5 mps 758 mmHg 63%
    09:00 +17°C° 0 mm 5 mps 758 mmHg 58%
    10:00 +19°C° 0 mm 5 mps 758 mmHg 57%
    11:00 +20°C° 0 mm 5 mps 758 mmHg 57%
    12:00 +20°C° 0 mm 5 mps 757 mmHg 56%
    13:00 +21°C° 0 mm 5 mps 757 mmHg 55%
    14:00 +21°C° 0 mm 5 mps 757 mmHg 54%
    15:00 +21°C° 0 mm 5 mps 757 mmHg 54%
    16:00 +20°C° 0 mm 4 mps 757 mmHg 59%
    17:00 +19°C° 0 mm 4 mps 757 mmHg 64%
    18:00 +19°C° 0 mm 3 mps 757 mmHg 69%
    19:00 +17°C° 0 mm 3 mps 757 mmHg 71%
    20:00 +14°C° 0 mm 3 mps 757 mmHg 73%
    21:00 +12°C° 0 mm 3 mps 757 mmHg 74%
    22:00 +12°C° 0 mm 3 mps 757 mmHg 75%
    23:00 +11°C° 0 mm 3 mps 757 mmHg 76%

    1 June, Monday

    Time Temperature Precipitation Wind Pressure Humidity
    00:00 +11°C° 0 mm 3 mps 757 mmHg 76%
    01:00 +10°C° 0 mm 3 mps 757 mmHg 79%
    02:00 +10°C° 0 mm 3 mps 757 mmHg 81%
    03:00 +9°C° 0 mm 3 mps 757 mmHg 84%
    04:00 +10°C° 0 mm 3 mps 757 mmHg 82%
    05:00 +12°C° 0 mm 4 mps 757 mmHg 80%
    06:00 +13°C° 0 mm 4 mps 757 mmHg 78%
    07:00 +14°C° 0 mm 4 mps 757 mmHg 73%
    08:00 +17°C° 0 mm 4 mps 757 mmHg 68%
    09:00 +19°C° 0 mm 5 mps 757 mmHg 63%
    10:00 +20°C° 0 mm 4 mps 757 mmHg 61%
    11:00 +21°C° 0 mm 4 mps 757 mmHg 58%
    12:00 +22°C° 0 mm 4 mps 757 mmHg 56%
    13:00 +22°C° 0 mm 4 mps 757 mmHg 56%
    14:00 +23°C° 0 mm 4 mps 756 mmHg 56%
    15:00 +23°C° 0 mm 4 mps 756 mmHg 57%
    16:00 +22°C° 0 mm 3 mps 756 mmHg 62%
    17:00 +22°C° 0 mm 3 mps 756 mmHg 68%
    18:00 +21°C° 0 mm 2 mps 756 mmHg 73%
    19:00 +19°C° 0 mm 2 mps 756 mmHg 75%
    20:00 +18°C° 0 mm 2 mps 756 mmHg 77%
    21:00 +16°C° 0 mm 2 mps 756 mmHg 78%
    22:00 +15°C° 0 mm 2 mps 756 mmHg 79%
    23:00 +14°C° 0 mm 2 mps 756 mmHg 80%

    2 June, Tuesday

    Time Temperature Precipitation Wind Pressure Humidity
    00:00 +13°C° 0 mm 2 mps 756 mmHg 81%
    01:00 +13°C° 0 mm 2 mps 756 mmHg 83%
    02:00 +12°C° 0 mm 2 mps 755 mmHg 85%
    03:00 +12°C° 0 mm 2 mps 755 mmHg 86%
    04:00 +13°C° 0 mm 2 mps 755 mmHg 85%
    05:00 +13°C° 0 mm 3 mps 755 mmHg 83%
    06:00 +14°C° 0 mm 3 mps 755 mmHg 81%
    07:00 +17°C° 0 mm 3 mps 755 mmHg 76%
    08:00 +19°C° 0 mm 3 mps 755 mmHg 71%
    09:00 +21°C° 0 mm 3 mps 755 mmHg 66%
    10:00 +22°C° 0 mm 3 mps 754 mmHg 61%
    11:00 +24°C° 0 mm 3 mps 754 mmHg 57%
    12:00 +25°C° 0 mm 3 mps 754 mmHg 53%
    13:00 +25°C° 0 mm 3 mps 753 mmHg 53%
    14:00 +25°C° 0 mm 2 mps 752 mmHg 53%
    15:00 +25°C° 0 mm 2 mps 752 mmHg 53%
    16:00 +25°C° 0 mm 2 mps 751 mmHg 58%
    17:00 +24°C° 0 mm 1 mps 751 mmHg 63%
    18:00 +24°C° 0 mm 1 mps 750 mmHg 68%
    19:00 +22°C° 0 mm 1 mps 750 mmHg 70%
    20:00 +20°C° 0 mm 1 mps 750 mmHg 73%
    21:00 +18°C° 0 mm 1 mps 750 mmHg 76%
    22:00 +16°C° 0 mm 1 mps 749 mmHg 79%
    23:00 +15°C° 0 mm 1 mps 749 mmHg 82%

    3 June, Wednesday

    Time Temperature Precipitation Wind Pressure Humidity
    00:00 +14°C° 0 mm 1 mps 748 mmHg 85%
    01:00 +14°C° 0 mm 1 mps 748 mmHg 86%
    02:00 +13°C° 0 mm 1 mps 747 mmHg 88%
    03:00 +13°C° 0 mm 1 mps 747 mmHg 90%
    04:00 +14°C° 0 mm 1 mps 746 mmHg 88%
    05:00 +15°C° 0 mm 1 mps 746 mmHg 86%
    06:00 +16°C° 0 mm 1 mps 745 mmHg 84%
    07:00 +18°C° 0 mm 1 mps 745 mmHg 79%
    08:00 +20°C° 0 mm 1 mps 745 mmHg 74%
    09:00 +21°C° 0 mm 1 mps 745 mmHg 69%
    10:00 +22°C° 0.1 mm 1 mps 744 mmHg 66%
    11:00 +23°C° 0.1 mm 2 mps 744 mmHg 63%
    12:00 +24°C° 0.1 mm 2 mps 743 mmHg 60%
    13:00 +24°C° 0.3 mm 1 mps 743 mmHg 62%
    14:00 +24°C° 0.3 mm 1 mps 743 mmHg 63%
    15:00 +24°C° 0.3 mm 1 mps 742 mmHg 64%
    16:00 +23°C° 0.7 mm 1 mps 742 mmHg 71%
    17:00 +22°C° 0.7 mm 1 mps 742 mmHg 77%
    18:00 +20°C° 0.7 mm 2 mps 742 mmHg 84%
    19:00 +19°C° 0.1 mm 2 mps 741 mmHg 86%
    20:00 +18°C° 0.1 mm 2 mps 741 mmHg 88%
    21:00 +16°C° 0.1 mm 2 mps 741 mmHg 90%
    22:00 +16°C° 0.1 mm 2 mps 741 mmHg 92%
    23:00 +15°C° 0.1 mm 2 mps 741 mmHg 93%
    Show more